Location: Peebles
(55.6412°N, 3.1714°W)
Time: 14:29:03
(UTC+01:00)

FLOCK 4S 19 - Pass Details

Date: 10 July 2022
Orbit: 507 x 523 km, 97.4° (Epoch: 16 August)

Event Time Altitude Azimuth Distance (km) Brightness Sun altitude
Rises 23:10:22 0° 208° (SSW) 2,651 ? -7.6°
Maximum altitude 23:15:37 17° 271° (W) 1,377 ? -8.0°
Drops below altitude 10° 23:18:11 10° 313° (NW) 1,773 ? -8.1°
Sets 23:20:54 0° 334° (NNW) 2,665 ? -8.3°
